EB1DWF Weather Reports


time (UTC)temp
F
wind
direction
speed
knots
gust
knots
rain 1hr
in
rain 24hr
in
rain mn
in
humidity
%
barometer
mb
20260508080215 51 257 0.0 3.5 0.01 0.01 0.01 100 1000.6
20260508075616 51 276 0.0 5.2 0.01 0.01 0.01 100 1000.6
20260508074714 51 234 2.6 5.2 0.01 0.01 0.01 100 1000.6
20260508073603 51 232 0.0 3.5 0.00 0.00 0.00 100 1000.4
20260508072703 51 232 0.9 4.3 0.00 0.00 0.00 100 1001.1
20260508072016 51 261 0.0 4.3 0.00 0.00 0.00 100 1001.0
20260508071113 51 236 0.9 3.5 0.00 0.00 0.00 100 1000.8
20260508070215 51 254 1.7 3.5 0.00 0.00 0.00 100 1000.8
20260508065617 51 225 0.0 1.7 0.00 0.00 0.00 100 1000.6
20260508064714 51 221 0.0 3.5 0.00 0.00 0.00 100 1000.6
20260508063604 51 227 103.4 7.0 0.00 0.00 0.00 100 1000.3
20260508062914 51 240 0.0 2.6 0.00 0.00 0.00 100 1000.0
20260508061803 51 293 1.7 3.5 0.00 0.00 0.00 100 999.9
20260508061114 51 270 0.0 3.5 0.00 0.00 0.00 100 999.9
20260508060216 51 225 0.0 3.5 0.00 0.00 0.00 100 999.8
20260508055403 51 228 1.7 3.5 0.00 0.00 0.00 100 999.6
20260508054503 50 286 0.0 5.2 0.00 0.00 0.00 100 999.5
20260508053817 50 211 0.0 3.5 0.00 0.00 0.00 100 999.4
20260508052703 50 236 0.9 3.5 0.00 0.00 0.00 100 999.3
20260508052017 51 257 0.0 1.7 0.00 0.00 0.00 100 999.3
20260508051114 50 225 0.0 6.1 0.00 0.00 0.00 100 999.3
20260508050003 50 202 103.4 7.0 0.00 0.00 0.00 100 999.3
20260508045613 50 188 0.0 7.0 0.00 0.00 0.00 100 999.2
20260508044716 50 243 0.0 3.5 0.00 0.00 0.00 100 999.2
20260508043603 50 0 0.0 0.0 0.00 0.00 0.00 100 999.3
20260508042703 50 225 0.0 0.9 0.00 0.00 0.00 100 999.3
20260508042012 50 0 0.0 0.0 0.00 0.00 0.00 100 999.3
20260508041115 50 0 0.0 0.0 0.00 0.00 0.00 100 999.5
20260508040004 50 148 0.0 3.5 0.00 0.00 0.00 100 999.5
20260508035614 50 174 2.6 3.5 0.00 0.00 0.00 100 999.5
20260508034504 50 209 1.7 2.6 0.00 0.00 0.00 100 999.5
20260508033813 50 234 0.0 7.0 0.00 0.00 0.00 100 999.6
20260508032703 50 266 0.0 1.7 0.00 0.00 0.00 100 999.6
20260508031803 50 219 1.7 1.7 0.00 0.00 0.00 100 999.8
20260508030903 51 234 1.7 1.7 0.00 0.00 0.00 100 999.9
20260508030004 51 199 0.0 0.9 0.00 0.00 0.00 100 999.8
20260508025614 51 0 0.0 0.0 0.00 0.00 0.00 100 1000.0
20260508024717 51 165 0.0 7.0 0.00 0.00 0.00 100 1000.0
20260508023604 51 225 0.0 0.9 0.00 0.00 0.00 100 999.9
20260508022703 51 225 0.0 0.9 0.00 0.00 0.00 100 1000.1
20260508021803 51 225 0.0 1.7 0.00 0.00 0.00 100 1000.3
20260508020903 51 45 0.0 2.6 0.00 0.00 0.00 100 1000.2
20260508020003 51 96 0.0 7.0 0.00 0.00 0.00 100 1000.3
20260508015615 51 156 0.0 7.0 0.00 0.00 0.00 100 1000.3
20260508014712 51 154 0.0 3.5 0.00 0.00 0.00 100 1000.6
20260508013815 51 301 2.6 3.5 0.00 0.00 0.00 100 1000.8
20260508012703 51 184 1.7 2.6 0.00 0.00 0.00 100 1000.9
20260508012014 52 210 0.9 3.5 0.00 0.00 0.00 100 1001.0
20260508011117 52 243 0.0 1.7 0.00 0.00 0.00 100 1001.0
20260508010004 52 231 0.9 1.7 0.00 0.00 0.00 100 1001.2
20260508005403 52 214 0.9 1.7 0.00 0.00 0.00 100 1001.2
20260508004713 52 278 0.0 1.7 0.00 0.00 0.00 100 1001.4
20260508003815 52 247 0.0 6.1 0.00 0.00 0.00 100 1001.5
20260508002913 51 264 1.7 4.3 0.00 0.00 0.00 100 1001.7
20260508001803 51 182 0.0 3.5 0.00 0.00 0.00 100 1001.8
20260508000903 51 195 1.7 3.5 0.00 0.00 0.00 100 1002.0
20260508000215 51 225 0.0 0.9 0.00 0.00 0.00 100 1001.7
20260507235616 51 84 0.0 3.5 0.00 0.00 0.00 100 1001.6
20260507234503 52 169 0.0 3.5 0.00 0.00 0.00 97 1001.6
20260507233604 52 180 0.0 0.9 0.00 0.00 0.00 97 1001.4
20260507232703 52 152 0.0 1.7 0.00 0.00 0.00 97 1001.5
20260507231803 52 225 0.0 3.5 0.00 0.00 0.00 96 1001.6
20260507230903 52 241 0.0 3.5 0.00 0.00 0.00 96 1001.5
20260507230215 52 251 1.7 3.5 0.00 0.00 0.00 96 1001.6
20260507225403 53 200 0.0 2.6 0.00 0.00 0.00 96 1001.6
20260507224714 53 232 1.7 3.5 0.00 0.00 0.00 96 1001.9
20260507223817 53 172 0.0 1.7 0.00 0.00 0.00 96 1001.9
20260507222703 53 112 0.0 4.3 0.00 0.00 0.00 96 1002.0
20260507222016 53 61 2.6 5.2 0.00 0.00 0.00 96 1002.0
20260507221114 53 47 3.5 3.5 0.00 0.00 0.00 96 1002.1
20260507220216 53 7 2.6 3.5 0.00 0.00 0.00 97 1002.1
20260507215612 53 207 1.7 3.5 0.00 0.00 0.00 97 1002.0
20260507214715 53 225 1.7 4.3 0.00 0.00 0.00 96 1002.1
20260507213603 54 133 1.7 4.3 0.00 0.00 0.00 93 1002.0
20260507212915 54 168 1.7 3.5 0.00 0.00 0.00 92 1002.1
20260507212017 54 280 0.0 1.7 0.00 0.00 0.00 92 1002.0
20260507210903 54 225 0.0 0.9 0.00 0.00 0.00 92 1001.9
20260507210003 55 225 0.0 0.9 0.00 0.00 0.00 92 1002.0
20260507205403 55 225 0.0 0.9 0.00 0.00 0.00 93 1001.9
20260507204716 55 225 0.0 1.7 0.00 0.00 0.00 93 1001.9
20260507203603 54 204 0.0 3.5 0.00 0.00 0.00 92 1001.8
20260507202703 55 185 1.7 7.8 0.00 0.00 0.00 90 1001.6
20260507201803 56 195 3.5 5.2 0.00 0.00 0.00 86 1001.5
20260507200903 56 269 0.0 3.5 0.00 0.00 0.00 83 1001.3
20260507200004 58 166 2.6 4.3 0.00 0.00 0.00 78 1001.4
20260507195403 58 177 1.7 4.3 0.00 0.00 0.00 75 1001.3
20260507194716 60 210 1.7 8.7 0.00 0.00 0.00 67 1001.2
20260507193813 61 198 1.7 6.1 0.00 0.00 0.00 59 1000.9
20260507192916 62 222 3.5 9.6 0.00 0.00 0.00 56 1000.8
20260507192013 62 189 4.3 5.2 0.00 0.00 0.00 53 1000.6
20260507190903 63 220 1.7 3.5 0.00 0.00 0.00 50 1000.2
20260507190004 63 233 1.7 3.5 0.00 0.00 0.00 50 1000.0
20260507185404 63 266 0.0 3.5 0.00 0.00 0.00 49 1000.0
20260507184717 64 253 1.7 5.2 0.00 0.00 0.00 50 999.9
20260507183814 64 239 2.6 7.0 0.00 0.00 0.00 50 999.8
20260507182917 65 254 3.5 7.0 0.00 0.00 0.00 49 999.5
20260507182014 67 228 1.7 4.3 0.00 0.00 0.00 46 999.5
20260507181116 68 227 1.7 10.4 0.00 0.00 0.00 42 999.2
20260507180004 74 277 3.5 8.7 0.00 0.00 0.00 29 999.1
20260507175615 75 246 3.5 6.1 0.00 0.00 0.00 28 999.0
20260507174503 77 203 1.7 4.3 0.00 0.00 0.00 25 999.0
20260507173815 76 213 1.7 4.3 0.00 0.00 0.00 26 998.8
20260507172703 76 253 1.7 4.3 0.00 0.00 0.00 32 998.7
20260507171803 75 233 2.6 4.3 0.00 0.00 0.00 33 998.6
20260507170903 74 312 1.7 5.2 0.00 0.00 0.00 33 998.8
20260507170004 74 206 1.7 7.0 0.00 0.00 0.00 34 998.6
20260507165403 73 202 2.6 7.0 0.00 0.00 0.00 34 998.6
20260507164503 72 214 3.5 5.2 0.00 0.00 0.00 34 998.6
20260507163815 71 219 3.5 6.1 0.00 0.00 0.00 39 998.7
20260507162703 68 254 2.6 7.0 0.00 0.00 0.00 45 998.9
20260507162015 68 217 1.7 7.0 0.00 0.00 0.00 45 998.8
20260507160903 69 196 3.5 7.8 0.00 0.00 0.00 45 998.9
20260507160215 69 222 2.6 7.8 0.00 0.00 0.00 49 998.8
20260507155403 69 219 3.5 7.0 0.00 0.00 0.00 48 998.9
20260507154503 69 217 1.7 9.6 0.00 0.00 0.00 48 999.0
20260507153603 70 269 4.3 7.8 0.00 0.00 0.00 45 999.1
20260507152913 70 259 2.6 7.0 0.00 0.00 0.00 43 999.2
20260507152016 70 191 1.7 4.3 0.00 0.00 0.00 47 999.3
20260507151113 66 206 1.7 3.5 0.00 0.00 0.00 50 999.5
20260507150003 68 239 1.7 3.5 0.00 0.00 0.00 41 999.7
20260507145617 69 234 1.7 3.5 0.00 0.00 0.00 39 999.6
20260507144714 66 227 0.0 4.3 0.00 0.00 0.00 38 999.8
20260507143603 64 228 2.6 9.6 0.00 0.00 0.00 38 1000.1
20260507142914 64 179 3.5 11.3 0.00 0.00 0.00 39 1000.1
20260507142016 64 203 5.2 11.3 0.00 0.00 0.00 40 1000.1
20260507141114 66 217 1.7 9.6 0.00 0.00 0.00 41 1000.2
20260507140004 68 208 1.7 3.5 0.00 0.00 0.00 38 999.8
20260507135612 69 209 2.6 4.3 0.00 0.00 0.00 37 999.7
20260507134503 71 272 0.9 7.8 0.00 0.00 0.00 32 999.5
20260507133817 73 285 1.7 7.8 0.00 0.00 0.00 33 999.4
20260507132703 72 274 6.1 9.6 0.00 0.00 0.00 33 999.4
20260507132017 72 275 3.5 7.0 0.00 0.00 0.00 34 999.4
20260507130903 69 295 1.7 5.2 0.00 0.00 0.00 37 999.4
20260507130004 70 250 1.7 5.2 0.00 0.00 0.00 33 999.4
20260507125613 72 307 3.5 5.2 0.00 0.00 0.00 29 999.5
20260507124716 70 264 0.0 3.5 0.00 0.00 0.00 31 999.3
20260507123603 70 324 1.7 9.6 0.00 0.00 0.00 32 999.3
20260507122915 71 291 6.1 12.2 0.00 0.00 0.00 30 999.6
20260507121803 72 190 3.5 7.0 0.00 0.00 0.00 30 999.7
20260507121115 71 181 0.0 7.0 0.00 0.00 0.00 31 999.8
20260507120217 71 229 4.3 10.4 0.00 0.00 0.00 30 1000.0
20260507115614 71 252 3.5 10.4 0.00 0.00 0.00 29 1000.0
20260507114504 74 139 2.6 4.3 0.00 0.00 0.00 31 1000.0
20260507113813 73 267 2.6 7.0 0.00 0.00 0.00 31 1000.2
20260507112916 74 212 2.6 4.3 0.00 0.00 0.00 34 1000.3
20260507112013 70 173 0.0 7.0 0.00 0.00 0.00 34 1000.4
20260507111116 74 249 0.9 3.5 0.00 0.00 0.00 33 1000.4
20260507110003 72 245 1.7 4.3 0.00 0.00 0.00 34 1000.6
20260507105403 72 202 1.7 3.5 0.00 0.00 0.00 36 1000.5
20260507104717 72 205 1.7 4.3 0.00 0.00 0.00 35 1000.6
20260507103603 72 224 1.7 3.5 0.00 0.00 0.00 38 1000.7
20260507102703 71 234 0.0 4.3 0.00 0.00 0.00 39 1000.9
20260507102014 72 273 0.9 5.2 0.00 0.00 0.00 39 1000.9
20260507101116 69 234 1.7 3.5 0.00 0.00 0.00 44 1001.0
20260507100004 66 204 1.7 3.5 0.00 0.00 0.00 49 1001.1
20260507095615 66 209 2.6 3.5 0.00 0.00 0.00 49 1001.1
20260507094503 66 215 2.6 3.5 0.00 0.00 0.00 50 1001.3
20260507093603 67 240 1.7 3.5 0.00 0.00 0.00 51 1001.5
20260507092703 64 238 1.7 3.5 0.00 0.00 0.00 54 1001.5
20260507092014 63 250 1.7 3.5 0.00 0.00 0.00 58 1001.6
20260507091117 60 237 1.7 3.5 0.00 0.00 0.00 66 1001.7
20260507090005 58 239 0.9 2.6 0.00 0.00 0.00 71 1001.8
20260507085616 58 259 0.0 1.7 0.00 0.00 0.00 71 1001.7
20260507084504 56 227 0.9 1.7 0.00 0.00 0.00 73 1001.8
20260507083603 56 228 0.0 2.6 0.00 0.00 0.00 74 1001.9
20260507082913 55 235 0.9 2.6 0.00 0.00 0.00 76 1001.8
20260507082015 55 239 0.0 2.6 0.00 0.00 0.00 75 1001.9